N6767G EBBR-LSZR

Flight info

Callsign N6767G
Flight time 0h 49m
Altitude 23000
Route PITES4M PITES DCT STR DCT ZUE ZUE3H
Aircraft A319/M-SDE3FGHIRWY/LB1

Departure

Time 2026-04-12 10:33
Airport Brussels Airport (EBBR)

Arrival

Time 2026-04-12 11:23
Airport Sankt Gallen Altenrhein Airport (LSZR)
Time Latitude Longitude Altitude Speed Heading
2026-04-12 10:06 50.90229 4.48407 125 ft 0 kts 335°
2026-04-12 10:11 50.90228 4.48407 129 ft 0 kts 335°
2026-04-12 10:23 50.90212 4.48420 125 ft 4 kts 330°
2026-04-12 10:23 50.90189 4.48442 125 ft 4 kts 327°
2026-04-12 10:24 50.90165 4.48462 132 ft 4 kts 354°
2026-04-12 10:24 50.90154 4.48457 133 ft 0 kts 67°
2026-04-12 10:28 50.90158 4.48472 133 ft 3 kts 69°
2026-04-12 10:28 50.90178 4.48544 134 ft 12 kts 65°
2026-04-12 10:28 50.90221 4.48699 135 ft 16 kts 71°
2026-04-12 10:29 50.90256 4.48825 135 ft 10 kts 65°
2026-04-12 10:29 50.90280 4.48905 135 ft 7 kts 65°
2026-04-12 10:29 50.90305 4.48991 136 ft 13 kts 63°
2026-04-12 10:29 50.90356 4.49166 135 ft 22 kts 65°
2026-04-12 10:30 50.90417 4.49383 132 ft 20 kts 66°
2026-04-12 10:30 50.90475 4.49563 131 ft 15 kts 57°
2026-04-12 10:30 50.90555 4.49633 129 ft 13 kts 12°
2026-04-12 10:30 50.90642 4.49669 124 ft 13 kts 14°
2026-04-12 10:31 50.90719 4.49700 122 ft 11 kts 14°
2026-04-12 10:31 50.90807 4.49738 117 ft 15 kts 21°
2026-04-12 10:31 50.90926 4.49790 111 ft 19 kts 31°
2026-04-12 10:31 50.90989 4.49869 109 ft 16 kts 29°
2026-04-12 10:32 50.91085 4.49938 104 ft 12 kts 14°
2026-04-12 10:32 50.91128 4.49916 104 ft 9 kts 301°
2026-04-12 10:32 50.91126 4.49851 106 ft 4 kts 256°
2026-04-12 10:32 50.91117 4.49811 107 ft 14 kts 245°
2026-04-12 10:33 50.90939 4.49211 112 ft 107 kts 246°
2026-04-12 10:33 50.90526 4.47756 461 ft 171 kts 242°
2026-04-12 10:33 50.89967 4.45866 1436 ft 202 kts 241°
2026-04-12 10:33 50.89728 4.43553 2590 ft 237 kts 274°
2026-04-12 10:34 50.90333 4.40979 4017 ft 252 kts 290°
2026-04-12 10:34 50.91069 4.38509 5662 ft 251 kts 285°
2026-04-12 10:34 50.91278 4.35785 7043 ft 249 kts 261°
2026-04-12 10:34 50.90805 4.33191 8432 ft 247 kts 240°
2026-04-12 10:35 50.89752 4.31067 9806 ft 250 kts 224°
2026-04-12 10:35 50.88432 4.29171 11002 ft 257 kts 223°
2026-04-12 10:35 50.87064 4.27207 11901 ft 275 kts 223°
2026-04-12 10:35 50.85613 4.25109 12681 ft 295 kts 223°
2026-04-12 10:36 50.83921 4.22968 13100 ft 327 kts 212°
2026-04-12 10:36 50.81765 4.21846 13063 ft 332 kts 192°
2026-04-12 10:36 50.79388 4.22014 13057 ft 353 kts 171°
2026-04-12 10:36 50.77136 4.23677 13142 ft 376 kts 147°
2026-04-12 10:37 50.75394 4.26817 14575 ft 380 kts 126°
2026-04-12 10:37 50.74463 4.30762 15613 ft 400 kts 104°
2026-04-12 10:37 50.74300 4.35260 16461 ft 415 kts 92°
2026-04-12 10:37 50.74505 4.39807 17460 ft 422 kts 88°
2026-04-12 10:38 50.74481 4.44449 18327 ft 421 kts 105°
2026-04-12 10:38 50.73527 4.48762 19114 ft 415 kts 123°
2026-04-12 10:38 50.71922 4.52496 19879 ft 413 kts 134°
2026-04-12 10:38 50.70157 4.56098 20653 ft 418 kts 135°
2026-04-12 10:39 50.68271 4.59623 21391 ft 422 kts 137°
2026-04-12 10:39 50.66380 4.63246 22121 ft 429 kts 136°
2026-04-12 10:39 50.64508 4.66933 22838 ft 434 kts 136°
2026-04-12 10:39 50.62582 4.70644 23106 ft 445 kts 137°
2026-04-12 10:40 50.60650 4.74306 23057 ft 430 kts 137°
2026-04-12 10:40 50.58730 4.77949 23062 ft 435 kts 137°
2026-04-12 10:40 50.56817 4.81615 23059 ft 430 kts 137°
2026-04-12 10:40 50.54897 4.85286 23060 ft 432 kts 137°
2026-04-12 10:41 50.52998 4.88892 23055 ft 430 kts 137°
2026-04-12 10:41 50.51093 4.92497 23063 ft 431 kts 137°
2026-04-12 10:41 50.49168 4.96150 23060 ft 431 kts 137°
2026-04-12 10:41 50.47271 4.99750 23059 ft 432 kts 137°
2026-04-12 10:42 50.45350 5.03388 23059 ft 431 kts 137°
2026-04-12 10:42 50.43431 5.07009 23063 ft 431 kts 136°
2026-04-12 10:42 50.41523 5.10604 23061 ft 431 kts 136°
2026-04-12 10:42 50.39594 5.14238 23061 ft 431 kts 136°
2026-04-12 10:43 50.35748 5.21471 23064 ft 432 kts 136°
2026-04-12 10:43 50.33840 5.25048 23060 ft 432 kts 136°
2026-04-12 10:43 50.31917 5.28649 23063 ft 432 kts 136°
2026-04-12 10:44 50.29972 5.32288 23061 ft 433 kts 136°
2026-04-12 10:44 50.28051 5.35879 23066 ft 433 kts 136°
2026-04-12 10:44 50.26104 5.39509 23065 ft 433 kts 136°
2026-04-12 10:44 50.24180 5.43093 23064 ft 434 kts 136°
2026-04-12 10:45 50.22243 5.46697 23061 ft 434 kts 136°
2026-04-12 10:45 50.20306 5.50295 23069 ft 434 kts 136°
2026-04-12 10:45 50.18346 5.53927 23076 ft 435 kts 136°
2026-04-12 10:45 50.16407 5.57522 23069 ft 435 kts 136°
2026-04-12 10:46 50.14443 5.61158 23070 ft 435 kts 136°
2026-04-12 10:46 50.12504 5.64738 23070 ft 436 kts 136°
2026-04-12 10:46 50.10540 5.68359 23057 ft 436 kts 136°
2026-04-12 10:46 50.08595 5.71945 23064 ft 436 kts 136°
2026-04-12 10:47 50.06625 5.75567 23061 ft 436 kts 136°
2026-04-12 10:47 50.04675 5.79149 23067 ft 436 kts 136°
2026-04-12 10:47 50.02709 5.82758 23070 ft 437 kts 136°
2026-04-12 10:47 50.00753 5.86343 23071 ft 437 kts 136°
2026-04-12 10:48 49.98776 5.89956 23071 ft 437 kts 136°
2026-04-12 10:48 49.96807 5.93554 23070 ft 437 kts 136°
2026-04-12 10:48 49.94847 5.97131 23070 ft 437 kts 136°
2026-04-12 10:48 49.92864 6.00745 23074 ft 437 kts 136°
2026-04-12 10:49 49.90905 6.04304 23079 ft 438 kts 136°
2026-04-12 10:49 49.88915 6.07921 23079 ft 439 kts 135°
2026-04-12 10:49 49.86952 6.11498 23084 ft 439 kts 135°
2026-04-12 10:49 49.85242 6.15503 23087 ft 446 kts 123°
2026-04-12 10:50 49.83820 6.19751 23085 ft 447 kts 121°
2026-04-12 10:50 49.82391 6.24062 23083 ft 447 kts 121°
2026-04-12 10:50 49.80948 6.28290 23087 ft 447 kts 122°
2026-04-12 10:50 49.79492 6.32510 23086 ft 447 kts 122°
2026-04-12 10:51 49.78032 6.36795 23082 ft 447 kts 121°
2026-04-12 10:51 49.76599 6.41027 23086 ft 447 kts 121°
2026-04-12 10:51 49.75149 6.45268 23084 ft 448 kts 122°
2026-04-12 10:51 49.73602 6.49480 23078 ft 444 kts 129°
2026-04-12 10:52 49.71520 6.52887 23083 ft 434 kts 146°
2026-04-12 10:52 49.68996 6.55398 23086 ft 428 kts 155°
2026-04-12 10:52 49.66424 6.57647 23087 ft 429 kts 156°
2026-04-12 10:52 49.63814 6.59912 23090 ft 429 kts 155°
2026-04-12 10:53 49.61232 6.62188 23085 ft 430 kts 155°
2026-04-12 10:53 49.58615 6.64511 23086 ft 431 kts 155°
2026-04-12 10:53 49.56040 6.66774 23082 ft 431 kts 155°
2026-04-12 10:53 49.53408 6.69073 23086 ft 431 kts 155°
2026-04-12 10:54 49.50810 6.71351 23089 ft 431 kts 155°
2026-04-12 10:54 49.48219 6.73627 23087 ft 432 kts 155°
2026-04-12 10:54 49.45592 6.75926 23088 ft 432 kts 155°
2026-04-12 10:54 49.42983 6.78202 23088 ft 433 kts 155°
2026-04-12 10:55 49.40377 6.80475 23086 ft 432 kts 155°
2026-04-12 10:55 49.37733 6.82781 23082 ft 434 kts 155°
2026-04-12 10:55 49.35123 6.85053 23090 ft 433 kts 155°
2026-04-12 10:55 49.32523 6.87313 23089 ft 434 kts 155°
2026-04-12 10:56 49.29882 6.89605 23087 ft 434 kts 155°
2026-04-12 10:56 49.27235 6.91900 23091 ft 434 kts 155°
2026-04-12 10:56 49.24629 6.94156 23095 ft 434 kts 155°
2026-04-12 10:56 49.21981 6.96449 23096 ft 434 kts 155°
2026-04-12 10:57 49.19367 6.98708 23098 ft 435 kts 155°
2026-04-12 10:57 49.16743 7.00971 23091 ft 436 kts 155°
2026-04-12 10:57 49.14089 7.03258 23097 ft 435 kts 155°
2026-04-12 10:57 49.11457 7.05523 23103 ft 436 kts 155°
2026-04-12 10:58 49.08827 7.07784 23097 ft 436 kts 155°
2026-04-12 10:58 49.06158 7.10078 23095 ft 437 kts 155°
2026-04-12 10:58 49.03523 7.12337 23095 ft 436 kts 155°
2026-04-12 10:58 49.00884 7.14598 23095 ft 437 kts 155°
2026-04-12 10:59 48.98226 7.16873 23089 ft 436 kts 155°
2026-04-12 10:59 48.95593 7.19119 23095 ft 436 kts 155°
2026-04-12 10:59 48.92935 7.21389 23097 ft 437 kts 155°
2026-04-12 10:59 48.90300 7.23635 23100 ft 437 kts 155°
2026-04-12 11:00 48.87630 7.25908 23105 ft 437 kts 155°
2026-04-12 11:00 48.84999 7.28145 23095 ft 437 kts 155°
2026-04-12 11:00 48.82354 7.30390 23097 ft 438 kts 155°
2026-04-12 11:00 48.79669 7.32669 23102 ft 438 kts 155°
2026-04-12 11:01 48.77021 7.34913 23104 ft 438 kts 155°
2026-04-12 11:01 48.74375 7.37150 23095 ft 438 kts 155°
2026-04-12 11:01 48.71686 7.39418 23100 ft 440 kts 155°
2026-04-12 11:01 48.69039 7.41659 23101 ft 439 kts 155°
2026-04-12 11:02 48.66356 7.43922 23106 ft 439 kts 155°
2026-04-12 11:02 48.63696 7.46160 23109 ft 438 kts 155°
2026-04-12 11:02 48.61052 7.48381 23106 ft 438 kts 155°
2026-04-12 11:02 48.58374 7.50630 23110 ft 439 kts 155°
2026-04-12 11:03 48.55722 7.52857 23108 ft 438 kts 155°
2026-04-12 11:03 48.53046 7.55099 23104 ft 438 kts 155°
2026-04-12 11:03 48.50441 7.57438 23097 ft 442 kts 148°
2026-04-12 11:03 48.48109 7.60530 23096 ft 446 kts 141°
2026-04-12 11:04 48.45868 7.63723 23105 ft 446 kts 140°
2026-04-12 11:04 48.43617 7.66892 23108 ft 445 kts 141°
2026-04-12 11:04 48.41307 7.70078 23099 ft 445 kts 141°
2026-04-12 11:04 48.39053 7.73196 23100 ft 445 kts 141°
2026-04-12 11:05 48.36759 7.76395 23097 ft 445 kts 141°
2026-04-12 11:05 48.34506 7.79534 23100 ft 444 kts 141°
2026-04-12 11:05 48.32241 7.82665 23100 ft 445 kts 141°
2026-04-12 11:05 48.29946 7.85833 23100 ft 445 kts 141°
2026-04-12 11:06 48.27671 7.88978 23104 ft 444 kts 141°
2026-04-12 11:06 48.25410 7.92104 23108 ft 444 kts 141°
2026-04-12 11:06 48.23152 7.95218 23102 ft 444 kts 141°
2026-04-12 11:06 48.20853 7.98379 23100 ft 444 kts 141°
2026-04-12 11:07 48.18595 8.01484 23098 ft 444 kts 141°
2026-04-12 11:07 48.16307 8.04627 23097 ft 444 kts 141°
2026-04-12 11:07 48.14036 8.07743 23087 ft 445 kts 141°
2026-04-12 11:07 48.11777 8.10835 23065 ft 444 kts 141°
2026-04-12 11:08 48.09459 8.14005 22588 ft 444 kts 141°
2026-04-12 11:08 48.07219 8.17072 22068 ft 438 kts 141°
2026-04-12 11:08 48.05010 8.20089 21544 ft 422 kts 141°
2026-04-12 11:08 48.02894 8.22976 21038 ft 404 kts 141°
2026-04-12 11:09 48.00829 8.25784 20528 ft 397 kts 141°
2026-04-12 11:09 47.98786 8.28556 20034 ft 392 kts 141°
2026-04-12 11:09 47.96796 8.31260 19558 ft 390 kts 141°
2026-04-12 11:09 47.94792 8.33981 19069 ft 386 kts 141°
2026-04-12 11:10 47.92827 8.36645 18604 ft 383 kts 141°
2026-04-12 11:10 47.90850 8.39321 18104 ft 380 kts 141°
2026-04-12 11:10 47.88922 8.41929 17577 ft 376 kts 141°
2026-04-12 11:10 47.86987 8.44544 17046 ft 373 kts 140°
2026-04-12 11:11 47.85068 8.47132 16534 ft 370 kts 140°
2026-04-12 11:11 47.83162 8.49703 16030 ft 367 kts 140°
2026-04-12 11:11 47.81271 8.52251 15530 ft 365 kts 140°
2026-04-12 11:11 47.79395 8.54776 15042 ft 362 kts 140°
2026-04-12 11:12 47.77534 8.57277 14559 ft 359 kts 140°
2026-04-12 11:12 47.75704 8.59736 14086 ft 357 kts 140°
2026-04-12 11:12 47.73866 8.62201 13593 ft 354 kts 140°
2026-04-12 11:12 47.72046 8.64635 13073 ft 350 kts 140°
2026-04-12 11:13 47.70248 8.67048 12559 ft 347 kts 140°
2026-04-12 11:13 47.68459 8.69442 12046 ft 343 kts 140°
2026-04-12 11:13 47.66695 8.71797 11560 ft 340 kts 140°
2026-04-12 11:13 47.64942 8.74136 11055 ft 337 kts 140°
2026-04-12 11:14 47.63221 8.76433 10585 ft 333 kts 140°
2026-04-12 11:14 47.61515 8.78708 10120 ft 325 kts 141°
2026-04-12 11:14 47.59895 8.80975 9616 ft 316 kts 134°
2026-04-12 11:14 47.58838 8.83789 9096 ft 312 kts 110°
2026-04-12 11:15 47.58250 8.86851 8587 ft 306 kts 106°
2026-04-12 11:15 47.57710 8.89867 8081 ft 299 kts 107°
2026-04-12 11:15 47.57172 8.92769 7590 ft 294 kts 107°
2026-04-12 11:15 47.56625 8.95658 7269 ft 288 kts 107°
2026-04-12 11:16 47.56081 8.98549 7023 ft 290 kts 107°
2026-04-12 11:16 47.55546 9.01421 6782 ft 289 kts 107°
2026-04-12 11:16 47.55008 9.04289 6532 ft 288 kts 107°
2026-04-12 11:16 47.54467 9.07158 6287 ft 289 kts 107°
2026-04-12 11:17 47.53935 9.09974 6039 ft 286 kts 107°
2026-04-12 11:17 47.53403 9.12797 6039 ft 287 kts 107°
2026-04-12 11:17 47.53020 9.15690 6018 ft 286 kts 99°
2026-04-12 11:17 47.52707 9.18623 5766 ft 284 kts 101°
2026-04-12 11:18 47.52374 9.21472 5527 ft 276 kts 101°
2026-04-12 11:18 47.52064 9.24206 5271 ft 263 kts 100°
2026-04-12 11:18 47.51781 9.26796 5016 ft 252 kts 100°
2026-04-12 11:18 47.51508 9.29267 4990 ft 233 kts 100°
2026-04-12 11:19 47.51243 9.31625 4990 ft 230 kts 100°
2026-04-12 11:19 47.50990 9.33902 5004 ft 218 kts 100°
2026-04-12 11:19 47.50751 9.36057 4793 ft 210 kts 100°
2026-04-12 11:19 47.50521 9.38116 4433 ft 194 kts 100°
2026-04-12 11:20 47.50309 9.40019 4090 ft 182 kts 100°
2026-04-12 11:20 47.50112 9.41786 3775 ft 170 kts 100°
2026-04-12 11:20 47.49927 9.43450 3480 ft 157 kts 99°
2026-04-12 11:20 47.49759 9.44951 3218 ft 140 kts 99°
2026-04-12 11:21 47.49606 9.46320 2971 ft 130 kts 98°
2026-04-12 11:21 47.49465 9.47589 2722 ft 121 kts 98°
2026-04-12 11:21 47.49329 9.48805 2486 ft 119 kts 98°
2026-04-12 11:21 47.49195 9.49996 2258 ft 119 kts 98°
2026-04-12 11:22 47.49055 9.51209 2018 ft 122 kts 99°
2026-04-12 11:22 47.48917 9.52460 1744 ft 122 kts 98°
2026-04-12 11:22 47.48770 9.53694 1572 ft 121 kts 101°
2026-04-12 11:22 47.48631 9.54926 1355 ft 123 kts 100°
2026-04-12 11:23 47.48516 9.55978 1317 ft 70 kts 98°
2026-04-12 11:23 47.48478 9.56326 1313 ft 10 kts 99°
2026-04-12 11:23 47.48468 9.56420 1311 ft 9 kts 98°
2026-04-12 11:23 47.48459 9.56514 1310 ft 9 kts 98°
2026-04-12 11:24 47.48449 9.56608 1310 ft 10 kts 99°
2026-04-12 11:24 47.48439 9.56711 1311 ft 11 kts 97°
2026-04-12 11:24 47.48432 9.56790 1311 ft 12 kts 98°
2026-04-12 11:24 47.48412 9.56970 1314 ft 13 kts 90°
2026-04-12 11:25 47.48417 9.57019 1316 ft 0 kts 93°
2026-04-12 11:25 47.48416 9.57021 1316 ft 1 kts 106°
2026-04-12 11:25 47.48409 9.57023 1316 ft 1 kts 183°
2026-04-12 11:25 47.48403 9.56975 1314 ft 10 kts 282°
2026-04-12 11:26 47.48419 9.56873 1312 ft 20 kts 283°
2026-04-12 11:26 47.48449 9.56609 1310 ft 32 kts 278°
2026-04-12 11:26 47.48487 9.56238 1313 ft 41 kts 279°
2026-04-12 11:26 47.48533 9.55802 1320 ft 41 kts 278°
2026-04-12 11:27 47.48573 9.55408 1318 ft 23 kts 278°
2026-04-12 11:27 47.48595 9.55331 1319 ft 2 kts 341°
2026-04-12 11:27 47.48613 9.55330 1316 ft 4 kts
2026-04-12 11:27 47.48648 9.55305 1315 ft 8 kts 307°
2026-04-12 11:28 47.48668 9.55249 1315 ft 1 kts 316°
2026-04-12 11:28 47.48671 9.55247 1315 ft 2 kts 328°
2026-04-12 11:28 47.48696 9.55246 1315 ft 3 kts 12°
2026-04-12 11:28 47.48707 9.55242 1315 ft 2 kts 324°
2026-04-12 11:29 47.48711 9.55219 1315 ft 2 kts 279°
2026-04-12 11:29 47.48715 9.55209 1315 ft 0 kts 312°
2026-04-12 11:29 47.48722 9.55209 1315 ft 1 kts